Location: Newark
(35.5300°N, 14.3000°E)
Time: 02:55:33
(UTC+00:00)

Transit 4A - Visible Passes

Search period start: 23 November 2019 00:00
Search period end: 03 December 2019 00:00
Orbit: 869 x 976 km, 66.8° (Epoch: 22 November)

Date Brightness Start Highest point End Pass type
(mag) Time Alt. Az. Time Alt. Az. Time Alt. Az.
23 Nov 9.5 04:14:33 10° N 04:19:35 29° NE 04:24:32 10° ESE visible
24 Nov 8.9 04:23:32 10° NNW 04:29:05 42° ENE 04:34:34 10° SE visible
25 Nov 10.5 02:50:04 10° NNE 02:50:59 10° NE 02:51:55 10° NE visible
25 Nov 8.1 04:32:40 10° NNW 04:38:30 65° ENE 04:44:15 10° SE visible
25 Nov 9.9 17:51:23 10° SSE 17:52:10 13° SSE 17:52:10 13° SSE visible
26 Nov 10.2 02:57:48 11° NNE 03:00:46 15° NE 03:04:07 10° E visible
26 Nov 7.7 04:41:58 10° NNW 04:47:50 82° WSW 04:53:38 10° SSE visible
26 Nov 9.3 17:59:40 10° S 18:02:22 23° SSE 18:02:22 23° SSE visible
26 Nov 10.7 19:45:55 10° WSW 19:45:57 10° WSW 19:45:57 10° WSW visible
27 Nov 9.8 03:07:35 16° NNE 03:10:27 22° NE 03:14:54 10° ESE visible
27 Nov 8.0 04:51:26 10° NW 04:57:05 52° WSW 05:02:41 10° S visible
27 Nov 8.6 18:08:23 10° S 18:12:33 39° SSE 18:12:33 39° SSE visible
28 Nov 9.2 03:17:28 23° NNE 03:20:00 33° NE 03:25:11 10° ESE visible
28 Nov 8.5 05:01:07 10° NW 05:06:16 33° WSW 05:11:22 10° S visible
28 Nov 8.1 18:17:28 10° SSW 18:22:42 63° S 18:22:42 63° S visible
29 Nov 8.5 03:27:25 34° N 03:29:30 49° ENE 03:35:05 10° SE visible
29 Nov 9.0 05:11:09 10° WNW 05:15:23 21° WSW 05:19:34 10° SSW visible
29 Nov 9.3 16:43:30 10° SE 16:47:21 17° ESE 16:49:14 15° E visible
29 Nov 8.2 18:26:52 10° SW 18:32:48 66° W 18:32:48 66° W visible
30 Nov 7.8 03:37:26 52° N 03:38:52 76° ENE 03:44:40 10° SSE visible
30 Nov 9.5 05:22:03 10° WNW 05:24:25 13° WSW 05:26:47 10° SW visible
30 Nov 8.9 16:51:20 10° SSE 16:56:27 27° ESE 16:59:16 19° ENE visible
30 Nov 8.7 18:36:34 10° SW 18:42:32 45° WNW 18:42:50 44° NW visible
01 Dec 10.4 02:03:57 13° E 02:03:57 13° E 02:05:05 10° E visible
01 Dec 7.6 03:47:31 64° WNW 03:48:10 70° WSW 03:53:55 10° SSE visible
01 Dec 8.4 16:59:47 10° S 17:05:37 41° ESE 17:09:13 21° NE visible
01 Dec 9.4 18:46:36 10° WSW 18:52:02 30° NW 18:52:46 30° NW visible
02 Dec 10.2 02:14:04 17° E 02:14:04 17° E 02:15:40 10° ESE visible
02 Dec 8.1 03:57:39 44° WSW 03:57:39 44° WSW 04:02:51 10° S visible
02 Dec 7.9 17:08:39 10° SSW 17:14:50 63° ESE 17:19:05 20° NE visible
02 Dec 9.9 18:57:01 10° W 19:01:38 21° NW 19:02:38 20° NW visible
